owner,sensor,date,latitude,longitude,vertical_datum,wind_speed,wind_to_direction,wind_speed_of_gust,qcFlag 
DISL,ioos:station:DISL:MBLA:1,2009-02-01T00:00:00Z,30.4367,-88.0117,14.2,4.09,205.2,-9999.0,'1111122,1111122,1111122' 
DISL,ioos:station:DISL:MBLA:1,2009-02-01T00:30:00Z,30.4367,-88.0117,14.2,3.16,206.0,-9999.0,'1111122,1111122,1111122' 
DISL,ioos:station:DISL:MBLA:1,2009-02-01T01:00:00Z,30.4367,-88.0117,14.2,2.93,185.7,-9999.0,'1111122,1111122,1111122' 
DISL,ioos:station:DISL:MBLA:1,2009-02-01T01:30:00Z,30.4367,-88.0117,14.2,2.66,183.4,-9999.0,'1111122,1111122,1111122' 
DISL,ioos:station:DISL:MBLA:1,2009-02-01T02:00:00Z,30.4367,-88.0117,14.2,2.9,188.2,-9999.0,'1111122,1111122,1111122' 
DISL,ioos:station:DISL:MBLA:1,2009-02-01T02:30:00Z,30.4367,-88.0117,14.2,3.09,198.0,-9999.0,'1111122,1111122,1111122' 
DISL,ioos:station:DISL:MBLA:1,2009-02-01T03:00:00Z,30.4367,-88.0117,14.2,2.58,179.1,-9999.0,'1111122,1111122,1111122' 
DISL,ioos:station:DISL:MBLA:1,2009-02-01T03:30:00Z,30.4367,-88.0117,14.2,2.82,175.4,-9999.0,'1111122,1111122,1111122' 
DISL,ioos:station:DISL:MBLA:1,2009-02-01T04:00:00Z,30.4367,-88.0117,14.2,2.01,174.9,-9999.0,'1111122,1111122,1111122' 
DISL,ioos:station:DISL:MBLA:1,2009-02-01T04:30:00Z,30.4367,-88.0117,14.2,1.57,161.5,-9999.0,'1111122,1111122,1111122' 
DISL,ioos:station:DISL:MBLA:1,2009-02-01T05:00:00Z,30.4367,-88.0117,14.2,2.16,192.3,-9999.0,'1111122,1111122,1111122' 
DISL,ioos:station:DISL:MBLA:1,2009-02-01T05:30:00Z,30.4367,-88.0117,14.2,2.29,197.4,-9999.0,'1111122,1111122,1111122' 
DISL,ioos:station:DISL:MBLA:1,2009-02-01T06:00:00Z,30.4367,-88.0117,14.2,3.07,188.0,-9999.0,'1111122,1111122,1111122' 
DISL,ioos:station:DISL:MBLA:1,2009-02-01T06:30:00Z,30.4367,-88.0117,14.2,3.48,190.4,-9999.0,'1111122,1111122,1111122' 
DISL,ioos:station:DISL:MBLA:1,2009-02-01T07:00:00Z,30.4367,-88.0117,14.2,3.52,189.6,-9999.0,'1111122,1111122,1111122' 
DISL,ioos:station:DISL:MBLA:1,2009-02-01T07:30:00Z,30.4367,-88.0117,14.2,3.56,198.3,-9999.0,'1111122,1111122,1111122' 
DISL,ioos:station:DISL:MBLA:1,2009-02-01T08:00:00Z,30.4367,-88.0117,14.2,2.63,201.7,-9999.0,'1111122,1111122,1111122' 
DISL,ioos:station:DISL:MBLA:1,2009-02-01T08:30:00Z,30.4367,-88.0117,14.2,2.42,212.5,-9999.0,'1111122,1111122,1111122' 
DISL,ioos:station:DISL:MBLA:1,2009-02-01T09:00:00Z,30.4367,-88.0117,14.2,2.5,231.4,-9999.0,'1111122,1111122,1111122' 
DISL,ioos:station:DISL:MBLA:1,2009-02-01T09:30:00Z,30.4367,-88.0117,14.2,3.01,227.5,-9999.0,'1111122,1111122,1111122' 
DISL,ioos:station:DISL:MBLA:1,2009-02-01T10:00:00Z,30.4367,-88.0117,14.2,3.04,230.2,-9999.0,'1111122,1111122,1111122' 
DISL,ioos:station:DISL:MBLA:1,2009-02-01T10:30:00Z,30.4367,-88.0117,14.2,2.64,247.3,-9999.0,'1111122,1111122,1111122' 
DISL,ioos:station:DISL:MBLA:1,2009-02-01T11:00:00Z,30.4367,-88.0117,14.2,1.7,258.9,-9999.0,'1111122,1111122,1111122' 
DISL,ioos:station:DISL:MBLA:1,2009-02-01T11:30:00Z,30.4367,-88.0117,14.2,0.6,331.5,-9999.0,'1111122,1111122,1111122' 
DISL,ioos:station:DISL:MBLA:1,2009-02-01T12:00:00Z,30.4367,-88.0117,14.2,1.81,66.23,-9999.0,'1111122,1111122,1111122' 
DISL,ioos:station:DISL:MBLA:1,2009-02-01T12:30:00Z,30.4367,-88.0117,14.2,1.62,96.2,-9999.0,'1111122,1111122,1111122' 
DISL,ioos:station:DISL:MBLA:1,2009-02-01T13:00:00Z,30.4367,-88.0117,14.2,3.03,94.8,-9999.0,'1111122,1111122,1111122' 
DISL,ioos:station:DISL:MBLA:1,2009-02-01T13:30:00Z,30.4367,-88.0117,14.2,3.2,102.5,-9999.0,'1111122,1111122,1111122' 
DISL,ioos:station:DISL:MBLA:1,2009-02-01T14:00:00Z,30.4367,-88.0117,14.2,3.0,102.4,-9999.0,'1111122,1111122,1111122' 
DISL,ioos:station:DISL:MBLA:1,2009-02-01T14:30:00Z,30.4367,-88.0117,14.2,3.38,105.1,-9999.0,'1111122,1111122,1111122' 
DISL,ioos:station:DISL:MBLA:1,2009-02-01T15:00:00Z,30.4367,-88.0117,14.2,3.65,104.7,-9999.0,'1111122,1111122,1111122' 
DISL,ioos:station:DISL:MBLA:1,2009-02-01T15:30:00Z,30.4367,-88.0117,14.2,2.94,101.9,-9999.0,'1111122,1111122,1111122' 
DISL,ioos:station:DISL:MBLA:1,2009-02-01T16:00:00Z,30.4367,-88.0117,14.2,3.22,98.8,-9999.0,'1111122,1111122,1111122' 
DISL,ioos:station:DISL:MBLA:1,2009-02-01T16:30:00Z,30.4367,-88.0117,14.2,2.91,110.0,-9999.0,'1111122,1111122,1111122' 
DISL,ioos:station:DISL:MBLA:1,2009-02-01T17:00:00Z,30.4367,-88.0117,14.2,3.43,117.8,-9999.0,'1111122,1111122,1111122' 
DISL,ioos:station:DISL:MBLA:1,2009-02-01T17:30:00Z,30.4367,-88.0117,14.2,3.75,115.5,-9999.0,'1111122,1111122,1111122' 
DISL,ioos:station:DISL:MBLA:1,2009-02-01T18:00:00Z,30.4367,-88.0117,14.2,3.74,128.3,-9999.0,'1111122,1111122,1111122' 
DISL,ioos:station:DISL:MBLA:1,2009-02-01T18:30:00Z,30.4367,-88.0117,14.2,3.51,144.4,-9999.0,'1111122,1111122,1111122' 
DISL,ioos:station:DISL:MBLA:1,2009-02-01T19:00:00Z,30.4367,-88.0117,14.2,3.2,140.5,-9999.0,'1111122,1111122,1111122' 
DISL,ioos:station:DISL:MBLA:1,2009-02-01T19:30:00Z,30.4367,-88.0117,14.2,4.93,134.6,-9999.0,'1111122,1111122,1111122' 
DISL,ioos:station:DISL:MBLA:1,2009-02-01T20:00:00Z,30.4367,-88.0117,14.2,5.4,126.9,-9999.0,'1111122,1111122,1111122' 
DISL,ioos:station:DISL:MBLA:1,2009-02-01T20:30:00Z,30.4367,-88.0117,14.2,5.57,122.8,-9999.0,'1111122,1111122,1111122' 
DISL,ioos:station:DISL:MBLA:1,2009-02-01T21:00:00Z,30.4367,-88.0117,14.2,5.75,120.2,-9999.0,'1111122,1111122,1111122' 
DISL,ioos:station:DISL:MBLA:1,2009-02-01T21:30:00Z,30.4367,-88.0117,14.2,6.13,127.1,-9999.0,'1111122,1111122,1111122' 
DISL,ioos:station:DISL:MBLA:1,2009-02-01T22:00:00Z,30.4367,-88.0117,14.2,5.87,129.2,-9999.0,'1111122,1111122,1111122' 
DISL,ioos:station:DISL:MBLA:1,2009-02-01T22:30:00Z,30.4367,-88.0117,14.2,5.6,133.8,-9999.0,'1111122,1111122,1111122' 
DISL,ioos:station:DISL:MBLA:1,2009-02-01T23:00:00Z,30.4367,-88.0117,14.2,5.46,128.1,-9999.0,'1111122,1111122,1111122' 
DISL,ioos:station:DISL:MBLA:1,2009-02-01T23:30:00Z,30.4367,-88.0117,14.2,5.76,124.6,-9999.0,'1111122,1111122,1111122' 
DISL,ioos:station:DISL:MBLA:1,2009-02-02T00:00:00Z,30.4367,-88.0117,14.2,5.71,124.0,-9999.0,'1111122,1111122,1111122' 
DISL,ioos:station:DISL:MBLA:1,2009-02-02T00:30:00Z,30.4367,-88.0117,14.2,4.94,125.8,-9999.0,'1111122,1111122,1111122' 
DISL,ioos:station:DISL:MBLA:1,2009-02-02T01:00:00Z,30.4367,-88.0117,14.2,5.26,116.9,-9999.0,'1111122,1111122,1111122' 
DISL,ioos:station:DISL:MBLA:1,2009-02-02T01:30:00Z,30.4367,-88.0117,14.2,4.17,100.7,-9999.0,'1111122,1111122,1111122' 
DISL,ioos:station:DISL:MBLA:1,2009-02-02T02:00:00Z,30.4367,-88.0117,14.2,4.24,101.4,-9999.0,'1111122,1111122,1111122' 
DISL,ioos:station:DISL:MBLA:1,2009-02-02T02:30:00Z,30.4367,-88.0117,14.2,4.48,101.2,-9999.0,'1111122,1111122,1111122' 
DISL,ioos:station:DISL:MBLA:1,2009-02-02T03:00:00Z,30.4367,-88.0117,14.2,3.89,112.0,-9999.0,'1111122,1111122,1111122' 
DISL,ioos:station:DISL:MBLA:1,2009-02-02T03:30:00Z,30.4367,-88.0117,14.2,3.63,114.3,-9999.0,'1111122,1111122,1111122' 
DISL,ioos:station:DISL:MBLA:1,2009-02-02T04:00:00Z,30.4367,-88.0117,14.2,3.97,111.8,-9999.0,'1111122,1111122,1111122' 
DISL,ioos:station:DISL:MBLA:1,2009-02-02T04:30:00Z,30.4367,-88.0117,14.2,3.73,107.5,-9999.0,'1111122,1111122,1111122' 
DISL,ioos:station:DISL:MBLA:1,2009-02-02T05:00:00Z,30.4367,-88.0117,14.2,3.35,112.8,-9999.0,'1111122,1111122,1111122' 
DISL,ioos:station:DISL:MBLA:1,2009-02-02T05:30:00Z,30.4367,-88.0117,14.2,4.26,157.3,-9999.0,'1111122,1111122,1111122' 
DISL,ioos:station:DISL:MBLA:1,2009-02-02T06:00:00Z,30.4367,-88.0117,14.2,5.97,139.8,-9999.0,'1111122,1111122,1111122' 
DISL,ioos:station:DISL:MBLA:1,2009-02-02T06:30:00Z,30.4367,-88.0117,14.2,6.18,159.1,-9999.0,'1111122,1111122,1111122' 
DISL,ioos:station:DISL:MBLA:1,2009-02-02T07:00:00Z,30.4367,-88.0117,14.2,6.62,154.7,-9999.0,'1111122,1111122,1111122' 
DISL,ioos:station:DISL:MBLA:1,2009-02-02T07:30:00Z,30.4367,-88.0117,14.2,7.8,175.3,-9999.0,'1111122,1111122,1111122' 
DISL,ioos:station:DISL:MBLA:1,2009-02-02T08:00:00Z,30.4367,-88.0117,14.2,7.62,170.8,-9999.0,'1111122,1111122,1111122' 
DISL,ioos:station:DISL:MBLA:1,2009-02-02T08:30:00Z,30.4367,-88.0117,14.2,7.46,167.2,-9999.0,'1111122,1111122,1111122' 
DISL,ioos:station:DISL:MBLA:1,2009-02-02T09:00:00Z,30.4367,-88.0117,14.2,7.72,162.7,-9999.0,'1111122,1111122,1111122' 
DISL,ioos:station:DISL:MBLA:1,2009-02-02T09:30:00Z,30.4367,-88.0117,14.2,7.56,160.7,-9999.0,'1111122,1111122,1111122' 
DISL,ioos:station:DISL:MBLA:1,2009-02-02T10:00:00Z,30.4367,-88.0117,14.2,6.06,163.7,-9999.0,'1111122,1111122,1111122' 
DISL,ioos:station:DISL:MBLA:1,2009-02-02T10:30:00Z,30.4367,-88.0117,14.2,6.89,160.6,-9999.0,'1111122,1111122,1111122' 
DISL,ioos:station:DISL:MBLA:1,2009-02-02T11:00:00Z,30.4367,-88.0117,14.2,6.63,163.6,-9999.0,'1111122,1111122,1111122' 
DISL,ioos:station:DISL:MBLA:1,2009-02-02T11:30:00Z,30.4367,-88.0117,14.2,5.84,163.6,-9999.0,'1111122,1111122,1111122' 
DISL,ioos:station:DISL:MBLA:1,2009-02-02T12:00:00Z,30.4367,-88.0117,14.2,7.45,163.9,-9999.0,'1111122,1111122,1111122' 
DISL,ioos:station:DISL:MBLA:1,2009-02-02T12:30:00Z,30.4367,-88.0117,14.2,5.08,171.7,-9999.0,'1111122,1111122,1111122' 
DISL,ioos:station:DISL:MBLA:1,2009-02-02T13:00:00Z,30.4367,-88.0117,14.2,5.07,162.3,-9999.0,'1111122,1111122,1111122' 
DISL,ioos:station:DISL:MBLA:1,2009-02-02T13:30:00Z,30.4367,-88.0117,14.2,3.52,172.0,-9999.0,'1111122,1111122,1111122' 
DISL,ioos:station:DISL:MBLA:1,2009-02-02T14:00:00Z,30.4367,-88.0117,14.2,3.47,151.4,-9999.0,'1111122,1111122,1111122' 
DISL,ioos:station:DISL:MBLA:1,2009-02-02T14:30:00Z,30.4367,-88.0117,14.2,3.22,158.2,-9999.0,'1111122,1111122,1111122' 
DISL,ioos:station:DISL:MBLA:1,2009-02-02T15:00:00Z,30.4367,-88.0117,14.2,4.31,145.2,-9999.0,'1111122,1111122,1111122' 
DISL,ioos:station:DISL:MBLA:1,2009-02-02T15:30:00Z,30.4367,-88.0117,14.2,3.74,152.5,-9999.0,'1111122,1111122,1111122' 
DISL,ioos:station:DISL:MBLA:1,2009-02-02T16:00:00Z,30.4367,-88.0117,14.2,4.24,165.7,-9999.0,'1111122,1111122,1111122' 
DISL,ioos:station:DISL:MBLA:1,2009-02-02T16:30:00Z,30.4367,-88.0117,14.2,3.73,177.8,-9999.0,'1111122,1111122,1111122' 
DISL,ioos:station:DISL:MBLA:1,2009-02-02T17:00:00Z,30.4367,-88.0117,14.2,6.76,238.5,-9999.0,'1111122,1111122,1111122' 
DISL,ioos:station:DISL:MBLA:1,2009-02-02T17:30:00Z,30.4367,-88.0117,14.2,5.73,308.7,-9999.0,'1111122,1111122,1111122' 
DISL,ioos:station:DISL:MBLA:1,2009-02-02T18:00:00Z,30.4367,-88.0117,14.2,4.31,337.7,-9999.0,'1111122,1111122,1111122' 
DISL,ioos:station:DISL:MBLA:1,2009-02-02T18:30:00Z,30.4367,-88.0117,14.2,5.48,326.6,-9999.0,'1111122,1111122,1111122' 
DISL,ioos:station:DISL:MBLA:1,2009-02-02T19:00:00Z,30.4367,-88.0117,14.2,10.55,341.5,-9999.0,'1111122,1111122,1111122' 
DISL,ioos:station:DISL:MBLA:1,2009-02-02T19:30:00Z,30.4367,-88.0117,14.2,8.57,355.4,-9999.0,'1111122,1111122,1111122' 
DISL,ioos:station:DISL:MBLA:1,2009-02-02T20:00:00Z,30.4367,-88.0117,14.2,11.18,353.2,-9999.0,'1111122,1111122,1111122' 
DISL,ioos:station:DISL:MBLA:1,2009-02-02T20:30:00Z,30.4367,-88.0117,14.2,11.54,345.6,-9999.0,'1111122,1111122,1111122' 
DISL,ioos:station:DISL:MBLA:1,2009-02-02T21:00:00Z,30.4367,-88.0117,14.2,11.36,350.9,-9999.0,'1111122,1111122,1111122' 
DISL,ioos:station:DISL:MBLA:1,2009-02-02T21:30:00Z,30.4367,-88.0117,14.2,9.93,356.5,-9999.0,'1111122,1111122,1111122' 
DISL,ioos:station:DISL:MBLA:1,2009-02-02T22:00:00Z,30.4367,-88.0117,14.2,12.87,341.5,-9999.0,'1111122,1111122,1111122' 
DISL,ioos:station:DISL:MBLA:1,2009-02-02T22:30:00Z,30.4367,-88.0117,14.2,13.35,346.5,-9999.0,'1111122,1111122,1111122' 
DISL,ioos:station:DISL:MBLA:1,2009-02-02T23:00:00Z,30.4367,-88.0117,14.2,14.21,348.6,-9999.0,'1111122,1111122,1111122' 
DISL,ioos:station:DISL:MBLA:1,2009-02-02T23:30:00Z,30.4367,-88.0117,14.2,14.49,346.2,-9999.0,'1111122,1111122,1111122' 
DISL,ioos:station:DISL:MBLA:1,2009-02-03T00:00:00Z,30.4367,-88.0117,14.2,14.53,353.2,-9999.0,'1111122,1111122,1111122' 
DISL,ioos:station:DISL:MBLA:1,2009-02-03T00:30:00Z,30.4367,-88.0117,14.2,12.54,346.0,-9999.0,'1111122,1111122,1111122' 
DISL,ioos:station:DISL:MBLA:1,2009-02-03T01:00:00Z,30.4367,-88.0117,14.2,13.47,349.4,-9999.0,'1111122,1111122,1111122' 
DISL,ioos:station:DISL:MBLA:1,2009-02-03T01:30:00Z,30.4367,-88.0117,14.2,13.64,348.8,-9999.0,'1111122,1111122,1111122' 
DISL,ioos:station:DISL:MBLA:1,2009-02-03T02:00:00Z,30.4367,-88.0117,14.2,13.72,346.1,-9999.0,'1111122,1111122,1111122' 
DISL,ioos:station:DISL:MBLA:1,2009-02-03T02:30:00Z,30.4367,-88.0117,14.2,13.03,343.1,-9999.0,'1111122,1111122,1111122' 
DISL,ioos:station:DISL:MBLA:1,2009-02-03T03:00:00Z,30.4367,-88.0117,14.2,14.41,349.8,-9999.0,'1111122,1111122,1111122' 
DISL,ioos:station:DISL:MBLA:1,2009-02-03T03:30:00Z,30.4367,-88.0117,14.2,14.16,355.2,-9999.0,'1111122,1111122,1111122' 
DISL,ioos:station:DISL:MBLA:1,2009-02-03T04:00:00Z,30.4367,-88.0117,14.2,11.36,341.6,-9999.0,'1111122,1111122,1111122' 
DISL,ioos:station:DISL:MBLA:1,2009-02-03T04:30:00Z,30.4367,-88.0117,14.2,11.95,343.4,-9999.0,'1111122,1111122,1111122' 
DISL,ioos:station:DISL:MBLA:1,2009-02-03T05:00:00Z,30.4367,-88.0117,14.2,11.71,346.7,-9999.0,'1111122,1111122,1111122' 
DISL,ioos:station:DISL:MBLA:1,2009-02-03T05:30:00Z,30.4367,-88.0117,14.2,12.89,356.5,-9999.0,'1111122,1111122,1111122' 
DISL,ioos:station:DISL:MBLA:1,2009-02-03T06:00:00Z,30.4367,-88.0117,14.2,10.92,344.6,-9999.0,'1111122,1111122,1111122' 
DISL,ioos:station:DISL:MBLA:1,2009-02-03T06:30:00Z,30.4367,-88.0117,14.2,10.31,344.0,-9999.0,'1111122,1111122,1111122' 
DISL,ioos:station:DISL:MBLA:1,2009-02-03T07:00:00Z,30.4367,-88.0117,14.2,9.78,341.5,-9999.0,'1111122,1111122,1111122' 
DISL,ioos:station:DISL:MBLA:1,2009-02-03T07:30:00Z,30.4367,-88.0117,14.2,10.12,349.6,-9999.0,'1111122,1111122,1111122' 
DISL,ioos:station:DISL:MBLA:1,2009-02-03T08:00:00Z,30.4367,-88.0117,14.2,10.03,340.5,-9999.0,'1111122,1111122,1111122' 
DISL,ioos:station:DISL:MBLA:1,2009-02-03T08:30:00Z,30.4367,-88.0117,14.2,9.74,340.5,-9999.0,'1111122,1111122,1111122' 
DISL,ioos:station:DISL:MBLA:1,2009-02-03T09:00:00Z,30.4367,-88.0117,14.2,9.65,339.3,-9999.0,'1111122,1111122,1111122' 
DISL,ioos:station:DISL:MBLA:1,2009-02-03T09:30:00Z,30.4367,-88.0117,14.2,8.63,345.3,-9999.0,'1111122,1111122,1111122' 
DISL,ioos:station:DISL:MBLA:1,2009-02-03T10:00:00Z,30.4367,-88.0117,14.2,9.5,4.285,-9999.0,'1111122,1111122,1111122' 
DISL,ioos:station:DISL:MBLA:1,2009-02-03T10:30:00Z,30.4367,-88.0117,14.2,9.85,358.5,-9999.0,'1111122,1111122,1111122' 
DISL,ioos:station:DISL:MBLA:1,2009-02-03T11:00:00Z,30.4367,-88.0117,14.2,9.39,350.4,-9999.0,'1111122,1111122,1111122' 
DISL,ioos:station:DISL:MBLA:1,2009-02-03T11:30:00Z,30.4367,-88.0117,14.2,8.36,1.847,-9999.0,'1111122,1111122,1111122' 
DISL,ioos:station:DISL:MBLA:1,2009-02-03T12:00:00Z,30.4367,-88.0117,14.2,7.55,2.181,-9999.0,'1111122,1111122,1111122' 
DISL,ioos:station:DISL:MBLA:1,2009-02-03T12:30:00Z,30.4367,-88.0117,14.2,7.39,359.6,-9999.0,'1111122,1111122,1111122' 
DISL,ioos:station:DISL:MBLA:1,2009-02-03T13:00:00Z,30.4367,-88.0117,14.2,6.72,356.6,-9999.0,'1111122,1111122,1111122' 
DISL,ioos:station:DISL:MBLA:1,2009-02-03T13:30:00Z,30.4367,-88.0117,14.2,5.73,357.0,-9999.0,'1111122,1111122,1111122' 
DISL,ioos:station:DISL:MBLA:1,2009-02-03T14:00:00Z,30.4367,-88.0117,14.2,4.79,4.012,-9999.0,'1111122,1111122,1111122' 
DISL,ioos:station:DISL:MBLA:1,2009-02-03T14:30:00Z,30.4367,-88.0117,14.2,3.63,7.83,-9999.0,'1111122,1111122,1111122' 
DISL,ioos:station:DISL:MBLA:1,2009-02-03T15:00:00Z,30.4367,-88.0117,14.2,3.33,15.78,-9999.0,'1111122,1111122,1111122' 
DISL,ioos:station:DISL:MBLA:1,2009-02-03T15:30:00Z,30.4367,-88.0117,14.2,1.89,20.35,-9999.0,'1111122,1111122,1111122' 
DISL,ioos:station:DISL:MBLA:1,2009-02-03T16:00:00Z,30.4367,-88.0117,14.2,0.66,352.3,-9999.0,'1111122,1111122,1111122' 
DISL,ioos:station:DISL:MBLA:1,2009-02-03T16:30:00Z,30.4367,-88.0117,14.2,0.33,298.4,-9999.0,'1111122,1111122,1111122' 
DISL,ioos:station:DISL:MBLA:1,2009-02-03T17:00:00Z,30.4367,-88.0117,14.2,1.32,246.3,-9999.0,'1111122,1111122,1111122' 
DISL,ioos:station:DISL:MBLA:1,2009-02-03T17:30:00Z,30.4367,-88.0117,14.2,2.14,235.2,-9999.0,'1111122,1111122,1111122' 
DISL,ioos:station:DISL:MBLA:1,2009-02-03T18:00:00Z,30.4367,-88.0117,14.2,3.71,190.0,-9999.0,'1111122,1111122,1111122' 
DISL,ioos:station:DISL:MBLA:1,2009-02-03T18:30:00Z,30.4367,-88.0117,14.2,6.7,201.8,-9999.0,'1111122,1111122,1111122' 
DISL,ioos:station:DISL:MBLA:1,2009-02-03T19:00:00Z,30.4367,-88.0117,14.2,8.3,197.7,-9999.0,'1111122,1111122,1111122' 
DISL,ioos:station:DISL:MBLA:1,2009-02-03T19:30:00Z,30.4367,-88.0117,14.2,8.88,204.5,-9999.0,'1111122,1111122,1111122' 
DISL,ioos:station:DISL:MBLA:1,2009-02-03T20:00:00Z,30.4367,-88.0117,14.2,8.56,206.9,-9999.0,'1111122,1111122,1111122' 
DISL,ioos:station:DISL:MBLA:1,2009-02-03T20:30:00Z,30.4367,-88.0117,14.2,9.23,209.1,-9999.0,'1111122,1111122,1111122' 
DISL,ioos:station:DISL:MBLA:1,2009-02-03T21:00:00Z,30.4367,-88.0117,14.2,9.99,231.4,-9999.0,'1111122,1111122,1111122' 
DISL,ioos:station:DISL:MBLA:1,2009-02-03T21:30:00Z,30.4367,-88.0117,14.2,10.54,234.4,-9999.0,'1111122,1111122,1111122' 
DISL,ioos:station:DISL:MBLA:1,2009-02-03T22:00:00Z,30.4367,-88.0117,14.2,11.69,238.3,-9999.0,'1111122,1111122,1111122' 
DISL,ioos:station:DISL:MBLA:1,2009-02-03T22:30:00Z,30.4367,-88.0117,14.2,11.31,237.9,-9999.0,'1111122,1111122,1111122' 
DISL,ioos:station:DISL:MBLA:1,2009-02-03T23:00:00Z,30.4367,-88.0117,14.2,12.52,247.3,-9999.0,'1111122,1111122,1111122' 
DISL,ioos:station:DISL:MBLA:1,2009-02-03T23:30:00Z,30.4367,-88.0117,14.2,10.22,245.4,-9999.0,'1111122,1111122,1111122' 
DISL,ioos:station:DISL:MBLA:1,2009-02-04T00:00:00Z,30.4367,-88.0117,14.2,8.79,240.6,-9999.0,'1111122,1111122,1111122' 
DISL,ioos:station:DISL:MBLA:1,2009-02-04T00:30:00Z,30.4367,-88.0117,14.2,8.38,253.4,-9999.0,'1111122,1111122,1111122' 
DISL,ioos:station:DISL:MBLA:1,2009-02-04T01:00:00Z,30.4367,-88.0117,14.2,8.64,262.1,-9999.0,'1111122,1111122,1111122' 
DISL,ioos:station:DISL:MBLA:1,2009-02-04T01:30:00Z,30.4367,-88.0117,14.2,8.04,270.4,-9999.0,'1111122,1111122,1111122' 
DISL,ioos:station:DISL:MBLA:1,2009-02-04T02:00:00Z,30.4367,-88.0117,14.2,7.39,273.8,-9999.0,'1111122,1111122,1111122' 
DISL,ioos:station:DISL:MBLA:1,2009-02-04T02:30:00Z,30.4367,-88.0117,14.2,8.06,300.8,-9999.0,'1111122,1111122,1111122' 
DISL,ioos:station:DISL:MBLA:1,2009-02-04T03:00:00Z,30.4367,-88.0117,14.2,8.91,323.7,-9999.0,'1111122,1111122,1111122' 
DISL,ioos:station:DISL:MBLA:1,2009-02-04T03:30:00Z,30.4367,-88.0117,14.2,9.66,336.4,-9999.0,'1111122,1111122,1111122' 
DISL,ioos:station:DISL:MBLA:1,2009-02-04T04:00:00Z,30.4367,-88.0117,14.2,11.11,339.7,-9999.0,'1111122,1111122,1111122' 
DISL,ioos:station:DISL:MBLA:1,2009-02-04T04:30:00Z,30.4367,-88.0117,14.2,11.38,339.0,-9999.0,'1111122,1111122,1111122' 
DISL,ioos:station:DISL:MBLA:1,2009-02-04T05:00:00Z,30.4367,-88.0117,14.2,11.75,338.8,-9999.0,'1111122,1111122,1111122' 
DISL,ioos:station:DISL:MBLA:1,2009-02-04T05:30:00Z,30.4367,-88.0117,14.2,13.69,352.7,-9999.0,'1111122,1111122,1111122' 
DISL,ioos:station:DISL:MBLA:1,2009-02-04T06:00:00Z,30.4367,-88.0117,14.2,13.82,4.77,-9999.0,'1111122,1111122,1111122' 
DISL,ioos:station:DISL:MBLA:1,2009-02-04T06:30:00Z,30.4367,-88.0117,14.2,13.72,347.6,-9999.0,'1111122,1111122,1111122' 
DISL,ioos:station:DISL:MBLA:1,2009-02-04T07:00:00Z,30.4367,-88.0117,14.2,12.89,355.0,-9999.0,'1111122,1111122,1111122' 
DISL,ioos:station:DISL:MBLA:1,2009-02-04T07:30:00Z,30.4367,-88.0117,14.2,15.45,351.6,-9999.0,'1111122,1111122,1111122' 
DISL,ioos:station:DISL:MBLA:1,2009-02-04T08:00:00Z,30.4367,-88.0117,14.2,13.67,350.1,-9999.0,'1111122,1111122,1111122' 
DISL,ioos:station:DISL:MBLA:1,2009-02-04T08:30:00Z,30.4367,-88.0117,14.2,14.74,1.503,-9999.0,'1111122,1111122,1111122' 
DISL,ioos:station:DISL:MBLA:1,2009-02-04T09:00:00Z,30.4367,-88.0117,14.2,13.81,350.6,-9999.0,'1111122,1111122,1111122' 
DISL,ioos:station:DISL:MBLA:1,2009-02-04T09:30:00Z,30.4367,-88.0117,14.2,13.34,352.8,-9999.0,'1111122,1111122,1111122' 
DISL,ioos:station:DISL:MBLA:1,2009-02-04T10:00:00Z,30.4367,-88.0117,14.2,14.58,352.3,-9999.0,'1111122,1111122,1111122' 
DISL,ioos:station:DISL:MBLA:1,2009-02-04T10:30:00Z,30.4367,-88.0117,14.2,13.74,359.5,-9999.0,'1111122,1111122,1111122' 
DISL,ioos:station:DISL:MBLA:1,2009-02-04T11:00:00Z,30.4367,-88.0117,14.2,14.82,358.7,-9999.0,'1111122,1111122,1111122' 
DISL,ioos:station:DISL:MBLA:1,2009-02-04T11:30:00Z,30.4367,-88.0117,14.2,13.21,0.197,-9999.0,'1111122,1111122,1111122' 
DISL,ioos:station:DISL:MBLA:1,2009-02-04T12:00:00Z,30.4367,-88.0117,14.2,13.93,3.675,-9999.0,'1111122,1111122,1111122' 
DISL,ioos:station:DISL:MBLA:1,2009-02-04T12:30:00Z,30.4367,-88.0117,14.2,14.07,5.188,-9999.0,'1111122,1111122,1111122' 
DISL,ioos:station:DISL:MBLA:1,2009-02-04T13:00:00Z,30.4367,-88.0117,14.2,14.43,358.6,-9999.0,'1111122,1111122,1111122' 
DISL,ioos:station:DISL:MBLA:1,2009-02-04T13:30:00Z,30.4367,-88.0117,14.2,14.52,7.06,-9999.0,'1111122,1111122,1111122' 
DISL,ioos:station:DISL:MBLA:1,2009-02-04T14:00:00Z,30.4367,-88.0117,14.2,14.33,7.26,-9999.0,'1111122,1111122,1111122' 
DISL,ioos:station:DISL:MBLA:1,2009-02-04T14:30:00Z,30.4367,-88.0117,14.2,12.85,9.71,-9999.0,'1111122,1111122,1111122' 
DISL,ioos:station:DISL:MBLA:1,2009-02-04T15:00:00Z,30.4367,-88.0117,14.2,11.19,6.813,-9999.0,'1111122,1111122,1111122' 
DISL,ioos:station:DISL:MBLA:1,2009-02-04T15:30:00Z,30.4367,-88.0117,14.2,10.01,1.76,-9999.0,'1111122,1111122,1111122' 
DISL,ioos:station:DISL:MBLA:1,2009-02-04T16:00:00Z,30.4367,-88.0117,14.2,10.95,359.0,-9999.0,'1111122,1111122,1111122' 
DISL,ioos:station:DISL:MBLA:1,2009-02-04T16:30:00Z,30.4367,-88.0117,14.2,8.45,6.955,-9999.0,'1111122,1111122,1111122' 
DISL,ioos:station:DISL:MBLA:1,2009-02-04T17:00:00Z,30.4367,-88.0117,14.2,9.22,355.2,-9999.0,'1111122,1111122,1111122' 
DISL,ioos:station:DISL:MBLA:1,2009-02-04T17:30:00Z,30.4367,-88.0117,14.2,10.05,1.392,-9999.0,'1111122,1111122,1111122' 
DISL,ioos:station:DISL:MBLA:1,2009-02-04T18:00:00Z,30.4367,-88.0117,14.2,9.39,359.1,-9999.0,'1111122,1111122,1111122' 
DISL,ioos:station:DISL:MBLA:1,2009-02-04T18:30:00Z,30.4367,-88.0117,14.2,8.94,359.7,-9999.0,'1111122,1111122,1111122' 
DISL,ioos:station:DISL:MBLA:1,2009-02-04T19:00:00Z,30.4367,-88.0117,14.2,7.4,5.561,-9999.0,'1111122,1111122,1111122' 
DISL,ioos:station:DISL:MBLA:1,2009-02-04T19:30:00Z,30.4367,-88.0117,14.2,6.39,1.384,-9999.0,'1111122,1111122,1111122' 
DISL,ioos:station:DISL:MBLA:1,2009-02-04T20:00:00Z,30.4367,-88.0117,14.2,6.8,8.34,-9999.0,'1111122,1111122,1111122' 
DISL,ioos:station:DISL:MBLA:1,2009-02-04T20:30:00Z,30.4367,-88.0117,14.2,7.22,8.16,-9999.0,'1111122,1111122,1111122' 
DISL,ioos:station:DISL:MBLA:1,2009-02-04T21:00:00Z,30.4367,-88.0117,14.2,6.48,359.1,-9999.0,'1111122,1111122,1111122' 
DISL,ioos:station:DISL:MBLA:1,2009-02-04T21:30:00Z,30.4367,-88.0117,14.2,6.6,355.2,-9999.0,'1111122,1111122,1111122' 
DISL,ioos:station:DISL:MBLA:1,2009-02-04T22:00:00Z,30.4367,-88.0117,14.2,7.06,346.0,-9999.0,'1111122,1111122,1111122' 
DISL,ioos:station:DISL:MBLA:1,2009-02-04T22:30:00Z,30.4367,-88.0117,14.2,7.1,350.6,-9999.0,'1111122,1111122,1111122' 
DISL,ioos:station:DISL:MBLA:1,2009-02-04T23:00:00Z,30.4367,-88.0117,14.2,8.08,341.7,-9999.0,'1111122,1111122,1111122' 
DISL,ioos:station:DISL:MBLA:1,2009-02-04T23:30:00Z,30.4367,-88.0117,14.2,7.25,334.1,-9999.0,'1111122,1111122,1111122' 
DISL,ioos:station:DISL:MBLA:1,2009-02-05T00:00:00Z,30.4367,-88.0117,14.2,8.52,337.5,-9999.0,'1111122,1111122,1111122' 
DISL,ioos:station:DISL:MBLA:1,2009-02-05T00:30:00Z,30.4367,-88.0117,14.2,7.96,339.7,-9999.0,'1111122,1111122,1111122' 
DISL,ioos:station:DISL:MBLA:1,2009-02-05T01:00:00Z,30.4367,-88.0117,14.2,8.16,338.8,-9999.0,'1111122,1111122,1111122' 
DISL,ioos:station:DISL:MBLA:1,2009-02-05T01:30:00Z,30.4367,-88.0117,14.2,7.84,345.8,-9999.0,'1111122,1111122,1111122' 
DISL,ioos:station:DISL:MBLA:1,2009-02-05T02:00:00Z,30.4367,-88.0117,14.2,8.18,1.585,-9999.0,'1111122,1111122,1111122' 
DISL,ioos:station:DISL:MBLA:1,2009-02-05T02:30:00Z,30.4367,-88.0117,14.2,8.14,359.5,-9999.0,'1111122,1111122,1111122' 
DISL,ioos:station:DISL:MBLA:1,2009-02-05T03:00:00Z,30.4367,-88.0117,14.2,6.21,12.71,-9999.0,'1111122,1111122,1111122' 
DISL,ioos:station:DISL:MBLA:1,2009-02-05T03:30:00Z,30.4367,-88.0117,14.2,5.92,9.89,-9999.0,'1111122,1111122,1111122' 